Regional Weather Roundup
Issued by NWS Upton, NY

Current Version | Previous Version | Text Only | Print | Product List | Glossary On
Versions: 1 2 3 4 5 6 7 8 9 10 11 12 13 14 15 16 17 18 19 20 21 22 23 24 25 26 27 28 29 30 31 32 33 34 35 36 37 38 39 40 41 42 43 44 45 46 47 48 49 50
000
ASUS41 KOKX 051904
RWROKX

REGIONAL WEATHER ROUNDUP
NATIONAL WEATHER SERVICE NEW YORK NY
300 PM EDT THU MAY 05 2016

NOTE: "FAIR" INDICATES FEW OR NO CLOUDS BELOW 12,000 FEET WITH NO
SIGNIFICANT WEATHER AND/OR OBSTRUCTIONS TO VISIBILITY.

NYZ071-072-176-178-NJZ106-104-052000-
NEW YORK CITY METRO AREA


CITY           SKY/WX    TMP DP  RH WIND       PRES   REMARKS
CENTRAL PARK   CLOUDY    57  42  57 NE10G20   29.67F
LAGUARDIA APRT CLOUDY    57  46  66 NE16      29.64F
KENNEDY INTL   CLOUDY    56  42  59 NE20G26   29.65F
NEWARK/LIBERTY CLOUDY    57  44  62 NE14G24   29.64F
BRNX BOT. GARD   N/A     55  41  58 NW7       29.66F
TETERBORO      CLOUDY    58  42  55 NE10G17   29.63F
$$

NYZ177-179-078>081-052000-
LONG ISLAND NEW YORK

CITY           SKY/WX    TMP DP  RH WIND       PRES   REMARKS
FARMINGDALE    CLOUDY    55  44  66 NE17G25   29.64F
ISLIP          CLOUDY    53  43  68 N17G26    29.64F
SHIRLEY        CLOUDY    52  43  71 VRB7      29.65F
RIVERHEAD        N/A     50  46  87 E12       29.65F
WESTHAMPTON    CLOUDY    46  43  89 NE21G29   29.65
EAST HAMPTON   CLOUDY    49  42  79 N13G23    29.65S
MONTAUK POINT  NOT AVBL
$$

NYZ052-065-067-052000-
HUDSON VALLEY

CITY           SKY/WX    TMP DP  RH WIND       PRES   REMARKS
WHITE PLAINS   CLOUDY    54  42  64 NE13G21   29.65F
NEWBURGH       CLOUDY    57  46  67 NE17G25   29.69S
MONTGOMERY     CLOUDY    56  45  66 N18       29.67F
POUGHKEEPSIE   CLOUDY    58  44  60 N12       29.67F
ALBANY         CLOUDY    58  44  60 N10       29.74S
$$

NJZ001-105-106-008-010-013-015-019>022-104-052000-
NEW JERSEY

CITY           SKY/WX    TMP DP  RH WIND       PRES   REMARKS
NEWARK/LIBERTY CLOUDY    57  44  62 NE14G24   29.64F
TETERBORO      CLOUDY    58  42  55 NE10G17   29.63F
CALDWELL       CLOUDY    59  30  33 NE13      29.64F
MORRISTOWN     CLOUDY    57  46  67 NE9G18    29.65F
SOMERVILLE     CLOUDY    58  44  60 VRB7      29.63F
SUSSEX         CLOUDY    55  43  63 NE15G22   29.67F
ANDOVER          N/A     54  44  69 NE9G16    29.66F
TRENTON        CLOUDY    56  45  66 NE9       29.64F
MILLVILLE      CLOUDY    51  45  79 NE8       29.63F
ATLANTIC CITY  CLOUDY    52  45  77 NE10      29.63S
WRIGHTSTOWN    CLOUDY    54  46  74 NE12      29.62S
TOMS RIVER     CLOUDY    54  43  66 NE13      29.64S
BELMAR         CLOUDY    53  43  68 N12G23    29.65F
$$

PAZ047>061-062-071-052000-
EASTERN PENNSYLVANIA

CITY           SKY/WX    TMP DP  RH WIND       PRES   REMARKS
PHILADELPHIA   CLOUDY    56  45  66 NE13      29.65F
ALLENTOWN      CLOUDY    59  45  59 E13       29.65F
SCRANTON       CLOUDY    56  44  64 N8        29.68S
$$

CTZ002-004>006-009-010-012-RIZ004-006-007-MAZ004-011-015-052000-
SOUTHERN NEW ENGLAND
 IN CT

CITY           SKY/WX    TMP DP  RH WIND       PRES   REMARKS
BRADLEY INTL   CLOUDY    53  42  66 NE16      29.70F
HARTFORD       CLOUDY    54  43  66 NE17      29.69F
DANBURY        CLOUDY    52  42  69 NE14G23   29.68F
WTRBRY/OXFORD  CLOUDY    52  39  62 NE13G22   29.68F
BRIDGEPORT     CLOUDY    55  43  63 NE17G24   29.66F
MERIDEN        CLOUDY    54  42  64 NE13G22   29.68F
NEW HAVEN      CLOUDY    54  43  66 N15G25    29.65F
CHESTER        CLOUDY    50  43  76 N13G21      N/A
GROTON         CLOUDY    50  47  89 N22G29    29.65F
WILLIMANTIC    CLOUDY    50  41  71 N18       29.70S

 IN RI

CITY           SKY/WX    TMP DP  RH WIND       PRES   REMARKS
PROVIDENCE     CLOUDY    46  41  82 N25G33    29.70F
BLOCK ISLAND   LGT RAIN  45  43  93 NE20G29   29.65S
WESTERLY       CLOUDY    50  40  68 N18G32    29.65F

 IN MA

CITY           SKY/WX    TMP DP  RH WIND       PRES   REMARKS
BOSTON         NOT AVBL
WORCESTER      CLOUDY    44  42  93 NE13G20   29.71F FOG
WESTFIELD      CLOUDY    53  42  66 N13G20    29.72S
PROVINCETOWN   LGT RAIN  44  43  96 NE21G30   29.71F
NANTUCKET      CLOUDY    45  44  97 N26G36    29.63F
$$

ANZ330-335-338-340-345-350-353-355-052000-
COASTAL MARINE OBSERVATIONS


STATION/POSITION TIME  SKY/WX   TEMP    WIND        PRES    VSBY  WAVE
                                AIR SEA DIR/SP/G                  HT/PER
                 (UTC)          (F)     (DEG/KT/KT) (MB)    (MI)  (FT/S)
NY HARB ENTRANCE 1750            51 50   30/ 16/ 19 1003.6          4/ 6
20S FIRE ISLAND  1750            47 48   30/ 19/ 23 1003.3          6/ 7
GREAT SOUTH BAY  1830            51 53   30/ 12/ 23   N/A
23 SSW MONTAUK P 1850            45 46   20/ 25/ 29 1002.6          8/ 6
15 E BARNEGAT LI 1822               50                N/A           7/ 7
HUDSON CANYON    1750            47 47              1000.7          9/ 7
KINGS POINT      1800            54 53              1004.4
EXECUTION ROCKS  NOT AVBL
CENTRAL LI SOUND 1800            50      30/ 12/ 16   N/A           2/ 4
EASTERN LI SOUND 1800            49 47   30/ 17/ 23   N/A
ROBBINS REEF     1800            53                 1003.7
$$


>>>>>>>>>>>>>>>>>>>>>>>>>>>> KEY <<<<<<<<<<<<<<<<<<<<<<<<<<<
>                                                          <
>     SKY/WX - SKY CONDITION/PRESENT WEATHER               <
>     TMP    - TEMPERATURE IN FAHRENHEIT                   <
>     DP     - DEWPOINT IN FAHRENHEIT                      <
>     RH     - RELATIVE HUMIDITY IN PERCENT                <
>     WIND   - DIRECTION AND SPEED IN MPH                  <
>     PRES   - MEAN SEA LEVEL PRESSURE IN INCHES OF HG     <
>     WCI    - WIND CHILL INDEX                            <
>     VSB    - VISIBILITY IN MILES                         <
>     HX     - HEAT INDEX                                  <
>     TC     - TEMPERATURE IN CELSIUS                      <
>     VRB    - VARIABLE WIND DIRECTION                     <
>                                                          <
>>>>>>>>>>>>>>>>>>>>>>>>>>>> KEY <<<<<<<<<<<<<<<<<<<<<<<<<<<





USA.gov is the U.S. government's official web portal to all federal, state and local government web resources and services.